Weather History for Copper Harbor, MI

Change the Weather History Date:

Friday, May 3, 2013

  Actual Average Record
Temperature  
Mean Temperature 32 °F -  
Max Temperature 34 °F 51 °F 75 °F (2000)
Min Temperature 30 °F 35 °F 28 °F (1997)
Degree Days  
Heating Degree Days 33    
Moisture  
Dew Point 29 °F    
Average Humidity 90    
Maximum Humidity 96    
Minimum Humidity 85    
Precipitation  
Precipitation 0.05 in - - ()
Sea Level Pressure  
Sea Level Pressure 30.34 in    
Wind  
Wind Speed 20 mph (ENE)    
Max Wind Speed 25 mph    
Max Gust Speed 33 mph    
Averages and records for this station are not official NWS values.
T = Trace of Precipitation, MM = Missing Value Source: NWS Daily Summary

Daily Weather History Graph

Daily Weather History Graph

Search for Another Location

Airport:

Trip Planner

Search our weather history database for the weather conditions in past years. The results will help you decide how hot, cold, wet, or windy it might be!

Date:

Astronomy

May. 03, 2013 Rise Set
Actual Time 6:31 AM EDT 9:06 PM EDT
Civil Twilight 5:56 AM EDT 9:41 PM EDT
Nautical Twilight 5:12 AM EDT 10:25 PM EDT
Astronomical Twilight 4:22 AM EDT 11:16 PM EDT
Moon 3:22 AM EDT (5/3) 2:35 PM EDT (5/3)
Length of Visible Light 15h 44m
Length of Day
14h 35m
Last Quarter, 37% of the Moon is Illuminated
May 3
Last Quarter
May 9
New
May 18
First Quarter
May 25
Full
May 31
Last Quarter

Hourly Weather History & Observations

Time (EDT) Temp. Windchill Dew Point Humidity Pressure Visibility Wind Dir Wind Speed Gust Speed Precip Events Conditions
12:51 AM 30.9 °F 18.1 °F 28.0 °F 89% 30.46 in - ENE 21.9 mph 29.9 mph N/A   Unknown
1:51 AM 30.9 °F 17.2 °F 28.0 °F 89% 30.40 in - NE 25.3 mph 33.4 mph 0.01 in   Unknown
2:51 AM 30.9 °F 17.2 °F 27.0 °F 85% 30.40 in - ENE 25.3 mph - N/A   Unknown
3:51 AM 30.9 °F 18.1 °F 28.0 °F 89% 30.40 in - ENE 21.9 mph 28.8 mph N/A   Unknown
4:51 AM 30.9 °F 17.8 °F 28.0 °F 89% 30.37 in - ENE 23.0 mph - N/A   Unknown
5:51 AM 30.9 °F 18.1 °F 28.9 °F 92% 30.37 in - ENE 21.9 mph - N/A   Unknown
6:51 AM 30.9 °F 17.5 °F 28.0 °F 89% 30.38 in - ENE 24.2 mph - N/A   Unknown
7:51 AM 30.9 °F 18.1 °F 28.9 °F 92% 30.35 in - ENE 21.9 mph - N/A   Unknown
8:51 AM 32.0 °F 20.5 °F 28.9 °F 88% 30.36 in - ENE 18.4 mph - N/A   Unknown
9:51 AM 30.9 °F 19.4 °F 28.9 °F 92% 30.36 in - ENE 17.3 mph - N/A   Unknown
10:51 AM 32.0 °F 20.5 °F 28.9 °F 88% 30.34 in - ENE 18.4 mph - N/A   Unknown
11:51 AM 32.0 °F 20.1 °F 28.9 °F 88% 30.33 in - ENE 19.6 mph - N/A   Unknown
12:51 PM 32.0 °F 20.5 °F 28.9 °F 88% 30.32 in - ENE 18.4 mph - N/A   Unknown
1:51 PM 32.0 °F 20.5 °F 30.0 °F 92% 30.32 in - ENE 18.4 mph - 0.01 in   Unknown
2:51 PM 32.0 °F 20.8 °F 30.0 °F 92% 30.32 in - ENE 17.3 mph - N/A   Unknown
3:51 PM 33.1 °F 21.9 °F 30.0 °F 89% 30.31 in - ENE 18.4 mph - N/A   Unknown
4:51 PM 33.1 °F 21.5 °F 30.0 °F 89% 30.30 in - ENE 19.6 mph - N/A   Unknown
5:51 PM 33.1 °F 23.0 °F 30.0 °F 89% 30.30 in - ENE 15.0 mph - N/A   Unknown
6:51 PM 33.1 °F 23.4 °F 30.0 °F 89% 30.30 in - ENE 13.8 mph - N/A   Unknown
7:51 PM 33.1 °F 23.9 °F 30.0 °F 89% 30.30 in - ENE 12.7 mph - N/A   Unknown
8:51 PM 33.1 °F 23.4 °F 30.9 °F 92% 30.28 in - ENE 13.8 mph - 0.02 in   Unknown
9:51 PM 33.1 °F 22.6 °F 30.9 °F 92% 30.28 in - ENE 16.1 mph - N/A   Unknown
10:51 PM 34.0 °F 25.5 °F 32.0 °F 92% 30.29 in - ENE 11.5 mph - N/A   Unknown
11:51 PM 33.1 °F 24.9 °F 32.0 °F 96% 30.27 in - NE 10.4 mph - 0.01 in   Unknown